Regional Weather Roundup
Issued by NWS

Home | Current Version | Previous Version | Graphics & Text | Print | Product List | Glossary Off
Versions: 1 2 3 4 5 6 7 8 9 10 11 12 13 14 15 16 17 18 19 20 21 22 23 24 25 26 27 28 29 30 31 32 33 34 35 36 37 38 39 40 41 42 43 44 45 46 47 48 49 50

000
ASUS43 KTOP 061059
RWRKS

WEATHER ROUNDUP FOR KANSAS
NATIONAL WEATHER SERVICE GOODLAND KS
500 AM CST SAT FEB 06 2016

NOTE:  "FAIR" INDICATES FEW OR NO CLOUDS BELOW 12,000 FEET WITH NO
SIGNIFICANT WEATHER AND/OR OBSTRUCTIONS TO VISIBILITY.

KSZ001>006-013>018-027>032-041>047-061200-
NORTHWEST KANSAS

CITY           SKY/WX    TMP DP  RH WIND       PRES   REMARKS
GOODLAND       CLOUDY    19   8  62 W14       30.25F WCI   6
HAYS           CLEAR     18   7  62 W7        30.29S
HILL CITY      CLOUDY    17  12  80 W6        30.29F
RUSSELL        CLEAR     22  19  89 W6        30.29S
$$

KSZ061>065-074>080-084>089-061200-
SOUTHWEST KANSAS

CITY           SKY/WX    TMP DP  RH WIND       PRES   REMARKS
DODGE CITY     CLEAR     22  15  75 NW9       30.31S
ELKHART          N/A     22  11  63 W8          N/A
GARDEN CITY    CLEAR     18  14  84 W8        30.30F
GREAT BEND     CLEAR     23  14  68 NW7       30.31S
LIBERAL        CLEAR     18  10  73 W9        30.33S
$$

KSZ066>073-081>083-090>101-061200-
SOUTHEAST KANSAS

CITY           SKY/WX    TMP DP  RH WIND       PRES   REMARKS
CHANUTE        PTCLDY    31  24  75 W7        30.28R
COFFEYVILLE    CLOUDY    34  29  82 CALM      30.30R
HUTCHINSON     CLEAR     24  20  84 NW7       30.31R
MEDICINE LODGE   N/A     25  23  92 NW6       30.32S
NEWTON         CLEAR     27  21  80 NW5       30.30S
PARSONS        MOCLDY    34  28  79 SW5       30.29S
WICHITA INTL   CLEAR     27  23  85 NW8       30.30S
WICHITA JABRA  CLEAR     29  26  89 NW9       30.29S
WINFIELD       CLEAR     29  25  85 NW7       30.31S
$$

KSZ007>012-019>026-033>040-048>060-102>105-061200-
NORTHEAST KANSAS

CITY           SKY/WX    TMP DP  RH WIND       PRES   REMARKS
CONCORDIA      CLEAR     25  22  88 W6        30.28F
EMPORIA        CLEAR     25  22  88 W6        30.27S
LAWRENCE       CLEAR     25  22  88 NW7       30.27R
MANHATTAN      CLEAR     23  23 100 CALM      30.30R
OLATHE IND     CLEAR     25  22  88 W6        30.26R
OLATHE EXE     CLEAR     29  23  78 NW3       30.24S
SALINA         CLEAR     28  23  81 CALM      30.31S
TOPEKA BILLARD CLEAR     28  23  81 W3        30.28R
TOPEKA FORBES  CLEAR     25  20  81 NW8       30.26R
$$



USA.gov is the U.S. government's official web portal to all federal, state and local government web resources and services.